Wind_Speed
2 3 3 4 3 3 2 2 3 3 3 3 3 2 2 1 1 1 1 1 1 1 1 2 2 3 3 3 4 4 4 4 4 5 5 5 6 6 7 7 7 8 8
2 3 3 4 3 2 2 1 1 2 2 2 2 2 1 1 1 2 2 2 2 2 3 3 4 4 4 4 5 5 5 5 6 6 7 7 7 8 8 9 9 9 10
2 2 3 3 3 2 2 1 1 1 1 1 1 1 1 1 2 3 3 3 3 4 4 5 5 5 5 6 6 6 6 7 7 8 9 9 9 9 9 10 10 10 11
3 3 4 3 3 3 2 1 1 1 0 1 1 1 2 3 3 4 4 5 5 5 6 7 7 6 6 7 7 7 8 9 9 9 10 11 10 10 10 11 11 11 11
3 3 3 2 3 3 3 2 2 2 2 3 3 4 4 5 5 6 6 6 7 8 8 8 8 8 8 8 9 10 10 11 11 11 11 11 11 12 12 12 12 13 13
2 2 2 1 2 2 2 3 3 3 4 4 5 5 6 6 6 7 7 8 8 8 9 9 9 9 9 10 11 11 11 11 12 12 13 14 14 14 14 14 14 15 15
1 1 0 1 2 2 2 3 4 5 5 6 6 7 7 7 7 7 7 8 9 9 9 10 10 11 11 11 11 12 13 12 13 13 14 15 15 16 16 16 17 17 17
0 1 1 2 2 3 3 4 5 6 7 7 7 8 8 8 8 8 8 9 9 9 10 11 12 12 12 12 13 14 14 14 14 15 16 16 17 17 18 18 19 19 20
1 1 2 2 3 4 4 5 5 6 7 7 8 8 9 9 9 9 10 10 10 10 11 11 11 12 13 14 15 15 16 16 16 16 17 19 19 19 19 19 20 20 20
2 2 3 3 4 4 5 6 6 7 7 8 8 9 9 10 10 11 11 11 11 11 12 12 13 14 14 15 15 15 16 16 16 16 17 18 18 20 20 20 21 22 22
3 4 4 4 5 6 6 7 7 8 8 9 9 10 10 10 11 12 12 12 11 12 12 13 14 14 14 15 15 16 16 16 17 18 18 19 19 20 21 22 22 24 24
4 5 5 5 6 7 7 8 8 9 9 10 10 11 11 11 11 11 12 12 12 13 12 13 14 15 15 14 15 15 16 17 18 19 19 19 19 20 20 21 23 24 25
5 5 5 6 7 7 8 8 8 8 8 9 9 10 11 11 12 12 12 12 13 13 13 13 13 14 14 15 15 15 16 17 17 18 20 20 20 20 21 22 23 24 25
5 5 6 6 7 7 7 8 8 8 8 9 9 10 11 12 12 12 12 13 13 13 13 13 14 14 15 14 14 15 16 17 18 19 20 20 21 21 21 22 23 24 25
6 6 6 6 7 8 9 9 9 9 9 10 10 11 12 12 12 12 13 13 14 14 13 14 14 15 15 15 16 16 17 17 18 20 20 20 20 21 22 23 23 24 25
7 7 7 7 8 9 10 10 9 10 10 11 11 12 12 12 12 13 13 14 14 15 15 15 16 16 16 17 18 18 19 19 19 20 21 21 22 23 24 25 25 26 27
7 7 7 8 8 9 9 9 9 10 11 11 12 12 12 12 13 13 13 14 15 15 16 16 17 17 17 18 19 19 19 20 21 21 22 23 23 24 25 26 26 27 28
9 8 8 8 8 9 9 9 9 10 11 11 12 12 12 12 13 13 14 14 15 15 16 17 18 18 19 19 19 20 21 21 22 22 23 23 24 25 26 26 27 28 29
9 9 9 9 9 9 9 10 10 11 11 12 13 13 13 13 14 14 14 15 15 16 16 18 18 19 20 20 21 21 22 22 22 23 24 25 26 26 27 27 28 28 28
11 10 10 9 9 10 10 11 11 12 12 12 13 13 14 14 14 14 15 16 16 17 17 18 19 20 20 21 22 22 23 23 24 25 25 26 27 27 28 28 28 29 29
11 11 10 10 10 11 11 12 12 12 12 13 13 14 14 14 15 15 16 16 17 17 18 18 19 20 21 21 22 22 23 24 25 26 27 28 28 28 29 29 29 29 29
11 11 11 12 12 12 12 12 13 13 13 13 14 14 15 15 16 16 17 17 17 18 18 19 19 20 21 22 22 23 23 24 26 27 28 28 28 28 29 29 29 29 29
12 12 12 12 13 13 13 13 13 14 14 14 15 15 16 16 16 16 17 17 18 19 19 20 19 20 21 22 23 24 24 25 26 26 27 28 28 28 28 28 28 28 29
13 13 13 13 14 13 14 14 14 15 14 14 15 15 16 16 17 18 18 18 18 19 20 21 21 21 22 23 24 25 26 27 27 28 28 28 28 28 28 29 29 28 29
14 15 15 15 15 15 15 15 15 15 15 15 16 16 17 17 18 18 19 19 19 20 20 21 21 21 22 24 25 26 27 27 28 28 28 28 29 29 29 29 29 29 29
15 15 16 16 16 16 16 16 16 16 16 16 17 17 18 18 19 19 19 20 20 20 21 21 22 22 23 24 25 26 27 27 28 28 29 29 29 29 29 29 29 28 28
Wind_Direction
112 138 146 145 138 131 116 90 78 72 74 77 64 63 65 57 28 18 313 289 313 323 313 313 310 306 304 304 301 293 289 292 287 276 270 269 269 270 268 269 270 268 267
116 137 158 162 153 153 138 110 88 78 89 80 63 53 41 9 341 325 304 290 295 297 298 296 298 301 299 296 296 293 287 285 283 278 275 271 270 272 273 271 271 271 269
101 135 153 164 165 168 162 137 95 112 110 102 56 36 348 319 318 300 300 298 290 288 289 289 291 293 295 297 297 295 294 289 285 280 277 275 273 274 274 274 273 275 273
91 120 144 156 168 175 179 196 199 193 197 312 308 306 292 294 289 291 293 293 286 283 285 287 290 289 290 293 288 286 288 288 285 281 278 276 274 276 276 274 274 275 275
91 117 142 154 169 177 192 220 229 251 270 286 292 291 286 287 284 285 283 285 284 283 282 286 286 283 284 285 286 285 285 286 283 281 279 277 276 276 277 277 276 275 273
95 111 138 143 161 189 216 238 249 258 266 273 283 290 291 290 290 290 285 282 285 286 281 283 284 282 281 282 283 286 286 285 283 282 280 279 277 274 275 275 275 275 274
95 93 204 238 237 243 253 264 263 262 268 274 278 285 286 285 286 287 285 282 282 279 281 283 284 284 280 282 283 286 285 281 281 282 280 280 279 275 273 274 274 274 274
308 261 259 274 268 263 259 263 272 271 270 275 276 279 284 283 285 282 280 278 278 278 278 280 286 283 278 281 282 284 280 278 280 279 277 279 280 278 275 273 273 274 274
319 283 270 271 282 281 274 274 273 275 273 271 274 277 282 288 284 280 278 279 277 276 278 278 284 284 281 280 281 283 279 277 280 279 277 278 278 279 277 277 276 275 275
304 294 290 283 288 292 288 283 282 281 279 276 279 282 281 285 283 283 280 281 280 281 282 284 284 284 283 281 280 280 281 279 281 282 280 281 281 281 280 279 279 277 275
299 291 293 294 297 296 292 290 283 284 285 286 285 285 286 284 281 282 283 281 282 285 287 287 285 284 286 284 285 282 282 279 279 280 280 283 280 280 281 279 280 279 275
304 297 290 296 300 299 295 291 288 287 288 289 287 285 285 284 284 287 285 281 284 288 289 289 283 283 283 282 285 282 283 280 280 280 281 283 284 284 284 282 281 280 278
312 302 292 293 298 301 299 294 293 290 290 292 292 289 288 284 284 286 288 287 288 289 291 292 288 287 287 286 284 282 285 285 284 282 283 284 284 285 286 285 283 281 279
320 312 303 299 300 303 302 298 296 290 289 291 291 293 294 291 285 286 287 289 292 292 290 290 292 293 292 290 290 289 289 290 290 289 288 286 286 288 289 288 287 285 283
313 312 309 304 303 303 301 300 297 293 294 298 297 295 295 295 292 290 289 290 291 290 288 289 293 294 293 295 292 292 294 294 293 292 290 289 290 291 290 291 290 289 287
307 304 306 306 303 302 301 300 297 296 296 298 299 299 299 296 295 294 294 291 290 288 286 288 290 291 294 295 296 293 293 294 295 294 292 292 291 290 290 290 290 289 288
313 311 312 311 307 306 305 303 300 298 299 300 301 302 302 301 299 296 294 293 291 289 286 288 290 292 294 295 295 296 296 295 295 294 294 294 294 293 293 292 292 290 289
327 322 319 313 306 304 305 305 307 305 304 303 304 304 303 304 303 300 299 298 294 291 290 290 290 292 294 295 296 297 296 295 295 295 295 295 295 294 294 294 294 293 292
336 334 328 320 315 310 307 306 305 303 304 305 305 303 302 303 303 302 301 299 297 294 293 292 293 294 295 297 298 298 298 296 296 297 297 298 297 297 296 295 294 293 292
333 333 331 328 325 320 316 311 306 306 305 304 305 305 304 305 306 303 301 300 299 298 296 294 294 295 295 296 297 298 298 298 298 298 299 300 299 298 297 297 296 295 294
326 328 330 329 326 321 319 316 312 311 308 307 308 307 307 307 307 306 304 303 302 301 298 297 296 297 299 299 298 298 298 299 299 301 301 301 301 300 300 299 297 296 295
329 327 328 324 321 320 322 320 316 316 312 311 311 311 310 308 308 308 307 305 303 302 301 300 300 301 302 302 300 300 300 302 302 303 304 304 304 304 303 301 300 298 296
323 324 325 323 321 318 318 317 315 313 312 310 310 312 313 311 312 312 311 309 306 304 302 300 300 301 302 303 302 302 304 305 305 306 307 307 306 306 306 305 303 301 299
322 324 325 322 321 318 317 316 314 312 310 310 311 313 313 313 313 313 311 310 308 306 303 301 301 302 302 303 304 305 306 306 307 307 308 308 308 308 308 307 306 304 303
318 318 321 321 319 317 316 314 312 311 311 311 313 315 314 313 313 313 311 311 311 310 306 305 305 304 305 305 305 306 307 308 308 308 308 308 309 309 309 308 307 306 304
314 314 317 319 318 317 317 316 313 312 311 312 313 314 314 314 314 314 312 311 311 311 311 309 307 305 306 307 307 308 308 308 308 308 308 309 309 308 308 308 307 306 305
Height
5901 5901 5902 5902 5902 5902 5902 5902 5902 5903 5902 5902 5902 5901 5901 5901 5900 5900 5899 5899 5899 5898 5898 5897 5897 5896 5895 5895 5894 5894 5893 5893 5892 5892 5891 5891 5891 5891 5890 5890 5890 5889 5889
5901 5901 5901 5902 5902 5903 5903 5903 5903 5903 5903 5902 5902 5902 5901 5901 5900 5900 5899 5899 5898 5898 5897 5897 5896 5895 5895 5894 5893 5893 5892 5892 5892 5891 5891 5890 5890 5889 5889 5888 5888 5887 5887
5901 5901 5901 5902 5902 5903 5903 5903 5903 5903 5903 5902 5902 5902 5901 5901 5900 5899 5899 5898 5897 5897 5896 5896 5895 5894 5894 5893 5893 5892 5891 5891 5890 5890 5889 5889 5888 5887 5887 5886 5886 5885 5885
5901 5900 5901 5901 5902 5902 5902 5902 5903 5903 5902 5902 5902 5901 5901 5900 5899 5899 5898 5897 5896 5895 5895 5895 5894 5893 5892 5892 5891 5891 5890 5889 5888 5888 5887 5887 5886 5885 5885 5884 5884 5883 5883
5901 5901 5901 5901 5901 5902 5902 5902 5902 5902 5902 5901 5901 5900 5900 5899 5898 5897 5897 5896 5895 5894 5893 5893 5892 5891 5891 5890 5889 5889 5888 5887 5886 5886 5885 5884 5884 5883 5882 5882 5881 5881 5880
5901 5901 5901 5901 5901 5901 5901 5901 5901 5901 5901 5900 5900 5899 5898 5898 5897 5896 5895 5894 5893 5892 5892 5891 5890 5889 5889 5888 5887 5886 5885 5885 5884 5883 5882 5882 5881 5880 5880 5879 5878 5877 5877
5901 5901 5901 5900 5900 5900 5900 5900 5900 5900 5899 5899 5899 5898 5897 5896 5895 5894 5893 5892 5892 5891 5890 5889 5888 5887 5886 5886 5885 5884 5883 5882 5881 5880 5879 5879 5878 5877 5876 5875 5874 5874 5873
5901 5901 5900 5900 5900 5900 5900 5899 5899 5899 5898 5898 5897 5896 5895 5895 5894 5893 5891 5890 5889 5888 5888 5887 5885 5884 5883 5883 5882 5881 5880 5878 5878 5876 5875 5875 5874 5873 5872 5871 5870 5869 5869
5900 5900 5900 5900 5899 5899 5899 5898 5898 5897 5896 5896 5895 5894 5893 5893 5892 5891 5889 5888 5887 5886 5885 5884 5883 5882 5881 5880 5879 5877 5876 5875 5874 5872 5871 5871 5870 5869 5868 5867 5866 5865 5864
5900 5900 5899 5899 5898 5898 5897 5897 5896 5895 5894 5894 5893 5892 5892 5890 5889 5888 5887 5886 5885 5884 5883 5882 5880 5879 5878 5876 5875 5873 5872 5871 5870 5869 5868 5866 5865 5864 5863 5862 5861 5860 5858
5899 5898 5898 5897 5897 5896 5896 5895 5894 5893 5892 5892 5891 5890 5889 5888 5887 5885 5884 5883 5882 5881 5880 5878 5877 5875 5874 5873 5871 5870 5868 5867 5866 5865 5863 5862 5860 5859 5858 5857 5855 5854 5852
5898 5897 5896 5896 5895 5894 5894 5893 5892 5891 5890 5889 5888 5887 5886 5885 5884 5883 5881 5880 5879 5877 5876 5875 5873 5872 5870 5869 5867 5865 5864 5863 5862 5860 5859 5857 5855 5854 5853 5851 5849 5848 5846
5896 5895 5894 5894 5893 5892 5892 5891 5889 5888 5887 5886 5885 5884 5883 5882 5880 5879 5878 5877 5875 5874 5873 5871 5870 5868 5866 5865 5863 5861 5860 5859 5857 5856 5854 5852 5851 5849 5847 5845 5843 5842 5840
5894 5893 5893 5892 5891 5890 5889 5888 5887 5886 5885 5883 5882 5881 5880 5878 5877 5876 5875 5873 5872 5871 5869 5868 5866 5864 5862 5861 5859 5857 5856 5854 5853 5851 5849 5847 5846 5843 5841 5839 5838 5836 5834
5893 5892 5891 5890 5888 5887 5886 5885 5884 5883 5882 5881 5879 5878 5877 5875 5873 5872 5871 5870 5869 5867 5865 5864 5862 5860 5858 5856 5855 5853 5851 5850 5848 5846 5844 5842 5840 5838 5836 5834 5831 5829 5827
5890 5889 5888 5887 5886 5885 5884 5883 5881 5880 5879 5878 5876 5875 5873 5872 5870 5869 5867 5866 5864 5863 5861 5859 5858 5856 5854 5852 5850 5848 5847 5845 5843 5841 5838 5836 5834 5832 5830 5828 5825 5823 5820
5888 5887 5886 5885 5884 5883 5881 5880 5879 5877 5876 5875 5873 5871 5870 5868 5866 5865 5863 5862 5860 5858 5857 5855 5854 5852 5850 5848 5846 5844 5842 5840 5838 5835 5833 5831 5828 5826 5824 5821 5818 5815 5813
5887 5885 5884 5883 5882 5880 5879 5878 5876 5875 5873 5871 5870 5868 5866 5865 5863 5861 5859 5857 5855 5854 5852 5851 5849 5847 5846 5843 5841 5839 5837 5834 5832 5830 5827 5825 5822 5819 5817 5814 5811 5808 5805
5886 5884 5882 5881 5879 5878 5876 5875 5873 5872 5870 5868 5866 5865 5863 5861 5859 5857 5855 5853 5851 5849 5848 5846 5844 5842 5840 5838 5836 5834 5831 5829 5826 5824 5821 5818 5815 5812 5809 5806 5803 5800 5797
5884 5882 5880 5879 5877 5875 5874 5872 5870 5868 5866 5865 5863 5861 5859 5857 5855 5853 5851 5849 5847 5845 5843 5841 5839 5837 5835 5833 5831 5828 5825 5823 5820 5818 5814 5811 5808 5805 5802 5799 5795 5792 5789
5882 5880 5878 5876 5875 5873 5871 5869 5867 5865 5863 5861 5859 5857 5855 5853 5851 5849 5847 5844 5842 5840 5838 5836 5834 5832 5830 5828 5825 5823 5820 5817 5814 5811 5808 5804 5801 5797 5794 5791 5787 5784 5781
5879 5878 5876 5874 5872 5870 5868 5866 5864 5862 5859 5857 5856 5853 5851 5849 5847 5844 5842 5840 5838 5836 5833 5831 5829 5827 5825 5822 5820 5817 5814 5811 5808 5805 5801 5797 5793 5790 5786 5783 5779 5776 5772
5876 5875 5873 5871 5869 5867 5865 5863 5860 5858 5856 5854 5852 5850 5847 5845 5843 5840 5838 5836 5833 5831 5829 5827 5824 5822 5819 5817 5814 5811 5808 5805 5802 5798 5794 5790 5786 5783 5779 5775 5771 5768 5764
5874 5872 5870 5868 5866 5864 5862 5859 5857 5855 5852 5850 5848 5846 5844 5841 5839 5836 5834 5831 5829 5826 5824 5822 5819 5817 5814 5811 5808 5805 5801 5798 5795 5791 5787 5783 5779 5775 5771 5768 5764 5760 5757
5871 5869 5867 5864 5862 5860 5858 5856 5853 5851 5849 5846 5844 5842 5840 5837 5835 5832 5829 5827 5824 5822 5819 5816 5814 5811 5808 5805 5802 5799 5795 5791 5788 5784 5780 5776 5772 5768 5764 5760 5757 5753 5749
5867 5865 5863 5861 5859 5857 5854 5852 5849 5847 5845 5842 5840 5838 5835 5833 5830 5827 5825 5822 5819 5817 5814 5811 5808 5805 5802 5799 5796 5792 5789 5785 5781 5778 5773 5769 5765 5761 5757 5753 5749 5746 5742